Powrót do katalogu

INSAT 4CR

AktywnyŁącznośćGEO
NORAD 32050·PAYLOAD·🇮🇳 India

Wystrzelony Sep 2, 2007 z Satish Dhawan Space Centre

Loading…

TLE

ŚwieżeSource: Space-Track

Epoka: Sep 14, 2026, 10:02 UTC

1 32050U 07037A   26257.41860447 -.00000151  00000-0  00000-0 0  9991
2 32050   7.0863  68.7495 0002240 146.0047 218.8436  0.99218332 52067

Śledź INSAT 4CR w czasie rzeczywistym z AllMySat

Download on the App Store